Location: Atlanta
(33.7490°N, 84.3880°W)
Time: 17:25:41
(UTC-04:00)

Daily predictions for brighter satellites

Satellite Brightness Start Highest point End
(mag) Time Altitude Azimuth Time Altitude Azimuth Time Altitude Azimuth
ATLAS 3B R/B 4.0 20:55:58 10° SW 21:02:55 49° NW 21:09:38 10° NNE
Cosmos 1898 Rocket 4.4 21:01:24 10° N 21:06:09 32° ENE 21:10:53 10° SE
EPKM 4.1 20:56:21 10° WSW 21:06:26 36° SSW 21:09:38 10° ESE
Atlas Centaur 2 2.0 21:04:54 10° W 21:09:04 41° SSW 21:12:37 10° ESE
SJ-6B 2.7 21:06:22 10° S 21:10:05 84° WSW 21:13:50 10° NNW
Okean 3 4.1 21:07:08 10° SSW 21:11:22 62° W 21:15:36 10° N
Envisat 3.3 21:08:56 10° S 21:14:00 74° WSW 21:19:05 10° NNW
Timation 2 Rocket 3.9 21:08:25 10° SSW 21:14:22 85° ESE 21:20:26 10° NNE
Resurs 1-3 4.1 21:12:01 10° SE 21:16:10 43° ENE 21:20:19 10° N
Cosmos 1975 3.4 21:13:07 10° N 21:16:55 40° E 21:20:41 10° SSE
Cosmos 2208 Rocket 4.4 21:15:03 10° SSW 21:20:11 70° WNW 21:25:21 10° NNE
H-2A R/B 4.0 21:18:30 10° E 21:20:21 12° ENE 21:22:14 10° NE
Cosmos 1743 3.5 21:18:50 10° NNE 21:22:20 34° E 21:25:46 10° SE
Cosmos 1378 Rocket 3.8 21:18:53 10° SSW 21:23:11 73° W 21:27:29 10° N
GPS 2-05 Rocket1 2.9 21:23:09 10° WSW 21:26:21 50° SSE 21:29:36 10° E
Cosmos 1975 Rocket 3.1 21:25:30 10° S 21:29:43 56° E 21:33:57 10° NNE
Cosmos 1725 Rocket 4.4 21:24:11 10° SSW 21:30:17 68° W 21:36:29 10° N
Okean 1 Rocket 3.2 21:32:12 10° N 21:36:31 73° W 21:40:49 10° S
Cosmos 1833 4.5 21:31:18 10° S 21:36:45 46° ESE 21:42:10 10° NE
Tsikada Rocket 4.2 21:33:54 10° N 21:40:21 83° W 21:46:45 10° S
Meteor 2-4 Rocket 3.9 21:35:46 10° SSE 21:40:55 47° E 21:46:14 10° NNE
ARGOS 4.3 21:37:34 14° ESE 21:41:06 27° ENE 21:45:35 10° NNE
ATLAS CENTAUR R/B 3.7 21:37:42 10° WNW 21:41:27 24° WSW 21:45:18 10° SSW
Cosmos 540 Rocket 4.2 21:38:48 10° SSE 21:43:21 32° E 21:47:56 10° NE
Meteor 1-12 Rocket 4.4 21:38:04 10° N 21:44:03 74° E 21:50:03 10° SSE
Cosmos 1242 Rocket 2.5 21:40:35 10° N 21:44:11 63° E 21:46:52 16° SSE
YAOGAN 6 3.7 21:42:07 10° S 21:45:39 45° W 21:49:13 10° NNW
USA 186 3.2 21:43:25 10° SSW 21:46:26 38° W 21:49:38 10° NNW
NOAA 11 4.2 21:43:37 11° SSE 21:48:56 74° ENE 21:54:22 10° N
Spot 2 Rocket 3.4 21:47:49 12° SSE 21:52:26 78° ENE 21:57:29 10° N
Shenzhou-11 Module 3.8 21:50:08 10° NW 21:52:39 24° NNE 21:54:34 14° ENE
Cosmos 2322 Rocket 2.2 21:48:02 10° NNW 21:53:40 73° ENE 21:57:49 19° SSE
Lacrosse 5 rocket 3.4 21:52:00 10° N 21:55:02 18° NE 21:57:27 12° ENE
Cosmos 1763 Rocket 4.0 21:51:49 10° SSW 21:57:05 65° WNW 22:02:20 10° N
SJ 16-02 3.2 21:54:30 10° NNE 21:57:20 16° ENE 21:58:37 15° E
Tiangong 2 3.9 21:57:27 10° NW 21:59:27 16° N 22:01:28 10° NE
Cosmos 1939 Rocket 4.3 21:56:44 10° SSW 22:00:33 37° W 22:04:24 10° NNW
Cosmos 1937 Rocket 3.4 21:55:44 10° NNW 22:00:53 76° ENE 22:04:20 21° SSE
Cosmos 1536 Rocket 4.2 22:01:18 25° SE 22:03:11 37° E 22:07:18 10° NNE
Cosmos 841 Rocket 3.6 21:59:18 10° SSW 22:04:31 82° WNW 22:09:49 10° NNE
SL-16 R/B 2.2 21:58:54 10° NNW 22:04:35 84° WSW 22:08:41 19° SSE
Cosmos 292 Rocket 3.8 22:00:10 10° SSW 22:04:55 84° WNW 22:09:41 10° NNE
BREEZE M DEB (TANK) 3.9 21:57:40 10° NW 22:06:59 43° NNE 22:09:21 20° E
Cosmos 2298 Rocket 4.0 22:06:15 10° NNW 22:11:33 74° ENE 22:14:31 27° SSE
Resurs 01 Rocket 2.8 22:08:47 10° S 22:12:55 40° W 22:17:03 10° NNW
Cosmos 1340 Rocket 2.8 22:11:33 15° S 22:14:53 86° WNW 22:18:58 10° N
Cosmos 1072 Rocket 4.4 22:09:25 10° S 22:15:45 77° E 22:22:03 10° N
USA 234 3.5 22:10:35 10° NE 22:17:08 72° NW 22:23:39 10° SW
CZ-4C R/B 4.3 22:12:34 10° N 22:18:28 26° NE 22:23:08 15° E
Cosmos 2219 4.1 22:20:18 27° ESE 22:20:42 28° ESE 22:25:28 10° NE
DELTA 2 R/B (1) 3.5 22:15:38 10° SW 22:21:04 58° SSE 22:26:31 10° ENE
USA 32 3.9 22:19:03 10° N 22:24:18 81° E 22:27:07 28° S
Chunghua 1 4.5 22:21:46 10° W 22:25:29 82° N 22:26:44 40° ENE
SL-08 RB Rocket 3.9 22:24:27 39° SE 22:25:48 54° ENE 22:30:16 10° N
ERS-1 Rocket 3.3 22:27:40 36° ESE 22:29:09 47° ENE 22:33:57 10° N
Delta 7925 Rocket 4.4 22:26:45 10° WSW 22:30:34 24° SSW 22:30:37 24° SSW
CENTAUR R/B 3.8 22:31:55 10° WSW 22:37:25 40° NW 22:43:40 10° NNE
Cosmos 1025 Rocket 3.5 22:40:14 42° E 22:40:14 42° E 22:44:08 10° NNE
Cosmos 2360 Rocket 2.1 22:36:24 10° NNW 22:42:04 79° ENE 22:43:55 44° SSE
Cosmos 2219 Rocket 3.6 22:40:18 10° N 22:44:35 22° ENE 22:45:43 21° ENE
MetOp-A 4.2 22:43:51 35° S 22:46:10 73° WSW 22:51:32 10° NNW
Meteor 1-15 Rocket 4.2 22:40:32 10° N 22:46:13 70° E 22:47:48 47° SSE
Skynet4D Del rocket 4.2 22:43:07 10° WSW 22:49:02 40° S 22:49:03 40° S
Aureole 2 Rocket 3.9 22:49:36 10° NW 22:51:29 25° WNW 22:51:29 25° WNW
Okean 2 3.2 22:53:27 83° ESE 22:53:31 84° E 22:57:42 10° N
SPOT 1/Viking Rocket 3.7 22:55:11 49° E 22:55:48 52° ENE 23:00:48 10° N
Atlas Centaur 2 3.7 22:55:11 10° WSW 22:55:30 11° SW 22:55:30 11° SW
Cosmos 783 Rocket 4.4 22:56:57 59° SE 22:57:19 61° ESE 23:02:33 10° NNE
Cosmos 2034 Rocket 4.1 22:54:59 25° SSW 22:58:44 72° W 23:04:53 10° N
H-2A R/B 2.2 22:57:46 45° SSW 22:59:08 65° W 23:04:08 10° NNW
Cosmos 1455 Rocket 4.4 22:55:54 10° NNW 22:59:53 35° W 23:01:30 26° SW
USA 245 3.3 23:00:38 72° NNW 23:00:38 72° NNW 23:04:34 10° NNW
Helios 1A 3.2 23:00:58 60° NE 23:00:58 60° NE 23:04:45 10° N
Cosmos 1125 Rocket 3.4 22:56:26 10° N 23:01:38 65° ENE 23:02:08 61° ESE
Landsat 7 4.3 23:02:11 46° ENE 23:02:11 46° ENE 23:06:39 10° N
GPS 2-05 Rocket1 4.4 23:00:16 10° W 23:02:11 31° WNW 23:02:11 31° WNW
Cosmos 1356 Rocket 3.5 23:07:09 79° WNW 23:07:09 79° WNW 23:11:22 10° N
BREEZE-M DEB (TANK) 4.4 23:06:36 10° W 23:08:59 30° SW 23:08:59 30° SW
COSMOS 2455 4.0 23:14:03 28° ENE 23:14:03 28° ENE 23:17:31 10° NE
Cosmos 2333 Rocket 3.0 23:10:10 10° N 23:15:23 36° ENE 23:15:46 35° ENE
COSMOS 2428 2.7 23:12:44 10° NNW 23:18:22 63° ENE 23:18:42 62° E
Terra 2.5 23:21:33 44° NE 23:21:33 44° NE 23:25:28 10° N
Cosmos 1634 Rocket 3.9 23:23:14 66° SE 23:23:54 71° E 23:30:12 10° N
Helios 1B rocket 3.0 23:21:09 10° N 23:24:33 55° NNW 23:24:33 55° NNW
SPOT 5 2.9 23:26:23 64° WNW 23:26:23 64° WNW 23:30:29 10° NNW
Cosmos 2297 Rocket 3.4 23:29:00 28° ENE 23:29:00 28° ENE 23:32:06 10° NE
Cosmos 2227 Rocket 3.1 23:32:28 35° ENE 23:32:28 35° ENE 23:36:07 10° NE
Nimbus 7 Rocket 4.3 23:26:56 10° NNE 23:32:43 71° E 23:32:43 71° E
IGS 5A 4.5 23:35:34 43° N 23:35:34 43° N 23:38:25 10° N
Lacrosse 5 rocket 2.8 23:30:27 10° NW 23:33:08 33° WNW 23:33:08 33° WNW
SJ 16-02 2.6 23:31:58 10° NW 23:35:37 34° W 23:35:37 34° W
Tiangong 2 4.1 23:34:14 10° NW 23:35:16 16° NNW 23:35:16 16° NNW
Cosmos 2322 4.4 23:34:21 10° NW 23:39:45 43° WSW 23:40:13 43° WSW
Cosmos 2237 Rocket 3.3 23:37:02 10° N 23:41:55 32° ENE 23:41:55 32° ENE
